Time,TemperatureF,DewpointF,PressureIn,WindDirection,WindDirectionDegrees,WindSpeedMPH,WindSpeedGustMPH,Humidity,HourlyPrecipIn,Conditions,Clouds,dailyrainin,SolarRadiationWatts/m^2,SoftwareType,DateUTC
2013-06-30 00:02:00,67.1,60.7,30.69,North,355,0.0,0.0,80,0.00,,,0.00,0.00,VWS V14.00,2013-06-30 06:02:00,
2013-06-30 00:07:00,66.9,60.9,30.69,North,355,0.0,0.0,81,0.00,,,0.00,0.00,VWS V14.00,2013-06-30 06:07:00,
2013-06-30 00:12:00,66.8,60.4,30.68,North,355,0.0,2.0,80,0.00,,,0.00,0.00,VWS V14.00,2013-06-30 06:12:00,
2013-06-30 00:17:00,66.8,60.4,30.68,North,355,0.0,2.0,80,0.00,,,0.00,0.00,VWS V14.00,2013-06-30 06:17:00,
2013-06-30 00:22:00,66.8,60.4,30.68,North,355,0.0,0.0,80,0.00,,,0.00,0.00,VWS V14.00,2013-06-30 06:22:00,
2013-06-30 00:27:00,66.5,60.5,30.68,North,355,0.0,0.0,81,0.00,,,0.00,0.00,VWS V14.00,2013-06-30 06:27:00,
2013-06-30 00:32:00,66.1,60.1,30.68,North,355,0.0,0.0,81,0.00,,,0.00,0.00,VWS V14.00,2013-06-30 06:32:00,
2013-06-30 00:37:00,66.0,60.0,30.69,North,355,0.0,0.0,81,0.00,,,0.00,0.00,VWS V14.00,2013-06-30 06:37:00,
2013-06-30 00:42:00,65.6,60.0,30.68,North,355,0.0,0.0,82,0.00,,,0.00,0.00,VWS V14.00,2013-06-30 06:42:00,
2013-06-30 00:47:00,65.4,59.8,30.70,North,355,0.0,0.0,82,0.00,,,0.00,0.00,VWS V14.00,2013-06-30 06:47:00,
2013-06-30 00:52:00,65.2,59.6,30.70,North,355,0.0,0.0,82,0.00,,,0.00,0.00,VWS V14.00,2013-06-30 06:52:00,
2013-06-30 00:57:00,65.2,59.6,30.69,North,355,0.0,0.0,82,0.00,,,0.00,0.00,VWS V14.00,2013-06-30 06:57:00,
2013-06-30 01:02:00,65.1,59.5,30.70,North,355,0.0,0.0,82,0.00,,,0.00,0.00,VWS V14.00,2013-06-30 07:02:00,
2013-06-30 01:07:00,65.1,59.5,30.70,North,355,0.0,0.0,82,0.00,,,0.00,0.00,VWS V14.00,2013-06-30 07:07:00,
2013-06-30 01:12:00,64.9,59.3,30.70,North,355,0.0,0.0,82,0.00,,,0.00,0.00,VWS V14.00,2013-06-30 07:12:00,
2013-06-30 01:17:00,64.7,59.1,30.70,North,355,0.0,0.0,82,0.00,,,0.00,0.00,VWS V14.00,2013-06-30 07:17:00,
2013-06-30 01:22:00,64.5,58.9,30.70,North,355,0.0,0.0,82,0.00,,,0.00,0.00,VWS V14.00,2013-06-30 07:22:00,
2013-06-30 01:27:00,64.3,59.0,30.70,North,355,0.0,0.0,83,0.00,,,0.00,0.00,VWS V14.00,2013-06-30 07:27:00,
2013-06-30 01:32:00,64.2,58.9,30.70,North,355,0.0,0.0,83,0.00,,,0.00,0.00,VWS V14.00,2013-06-30 07:32:00,
2013-06-30 01:37:00,64.0,58.7,30.70,North,355,0.0,0.0,83,0.00,,,0.00,0.00,VWS V14.00,2013-06-30 07:37:00,
2013-06-30 01:42:00,63.8,58.5,30.70,North,355,0.0,0.0,83,0.00,,,0.00,0.00,VWS V14.00,2013-06-30 07:42:00,
2013-06-30 01:47:00,63.7,58.8,30.70,North,355,0.0,2.0,84,0.00,,,0.00,0.00,VWS V14.00,2013-06-30 07:47:00,
2013-06-30 01:52:00,63.6,59.0,30.70,North,355,0.0,0.0,85,0.00,,,0.00,0.00,VWS V14.00,2013-06-30 07:52:00,
2013-06-30 01:57:00,63.5,58.6,30.70,North,355,0.0,0.0,84,0.00,,,0.00,0.00,VWS V14.00,2013-06-30 07:57:00,
2013-06-30 02:02:00,63.4,58.8,30.70,North,355,0.0,0.0,85,0.00,,,0.00,0.00,VWS V14.00,2013-06-30 08:02:00,
2013-06-30 02:07:00,63.4,58.8,30.70,North,355,0.0,0.0,85,0.00,,,0.00,0.00,VWS V14.00,2013-06-30 08:07:00,
2013-06-30 02:12:00,63.2,58.6,30.67,North,355,0.0,0.0,85,0.00,,,0.00,0.00,VWS V14.00,2013-06-30 08:12:00,
2013-06-30 02:17:00,63.2,58.6,30.67,North,355,0.0,0.0,85,0.00,,,0.00,0.00,VWS V14.00,2013-06-30 08:17:00,
2013-06-30 02:22:00,63.1,58.5,30.67,North,355,0.0,0.0,85,0.00,,,0.00,0.00,VWS V14.00,2013-06-30 08:22:00,
2013-06-30 02:27:00,62.9,58.3,30.67,North,355,0.0,0.0,85,0.00,,,0.00,0.00,VWS V14.00,2013-06-30 08:27:00,
2013-06-30 02:32:00,62.7,58.1,30.67,North,355,0.0,0.0,85,0.00,,,0.00,0.00,VWS V14.00,2013-06-30 08:32:00,
2013-06-30 02:37:00,62.7,58.1,30.68,North,355,0.0,0.0,85,0.00,,,0.00,0.00,VWS V14.00,2013-06-30 08:37:00,
2013-06-30 02:42:00,62.6,58.0,30.68,North,355,1.0,1.0,85,0.00,,,0.00,0.00,VWS V14.00,2013-06-30 08:42:00,
2013-06-30 02:47:00,62.2,57.3,30.69,North,355,0.0,2.0,84,0.00,,,0.00,0.00,VWS V14.00,2013-06-30 08:47:00,
2013-06-30 02:52:00,62.0,57.5,30.69,North,355,0.0,2.0,85,0.00,,,0.00,0.00,VWS V14.00,2013-06-30 08:52:00,
2013-06-30 02:57:00,61.8,57.6,30.69,North,355,3.0,3.0,86,0.00,,,0.00,0.00,VWS V14.00,2013-06-30 08:57:00,
2013-06-30 03:02:00,61.8,57.9,30.69,North,355,0.0,3.0,87,0.00,,,0.00,0.00,VWS V14.00,2013-06-30 09:02:00,
2013-06-30 03:07:00,61.9,57.7,30.69,North,360,0.0,3.0,86,0.00,,,0.00,0.00,VWS V14.00,2013-06-30 09:07:00,
2013-06-30 03:12:00,61.9,57.7,30.67,North,360,0.0,0.0,86,0.00,,,0.00,0.00,VWS V14.00,2013-06-30 09:12:00,
2013-06-30 03:17:00,61.7,57.5,30.67,North,360,0.0,0.0,86,0.00,,,0.00,0.00,VWS V14.00,2013-06-30 09:17:00,
2013-06-30 03:22:00,61.6,57.4,30.67,North,360,0.0,0.0,86,0.00,,,0.00,0.00,VWS V14.00,2013-06-30 09:22:00,
2013-06-30 03:27:00,61.6,57.7,30.68,North,360,0.0,0.0,87,0.00,,,0.00,0.00,VWS V14.00,2013-06-30 09:27:00,
2013-06-30 03:32:00,61.5,57.6,30.67,North,360,0.0,0.0,87,0.00,,,0.00,0.00,VWS V14.00,2013-06-30 09:32:00,
2013-06-30 03:37:00,61.5,57.3,30.68,North,360,0.0,0.0,86,0.00,,,0.00,0.00,VWS V14.00,2013-06-30 09:37:00,
2013-06-30 03:42:00,61.5,57.6,30.67,North,360,0.0,0.0,87,0.00,,,0.00,0.00,VWS V14.00,2013-06-30 09:42:00,
2013-06-30 03:47:00,61.5,57.6,30.68,North,360,0.0,0.0,87,0.00,,,0.00,0.00,VWS V14.00,2013-06-30 09:47:00,
2013-06-30 03:52:00,61.4,57.2,30.68,North,360,1.0,2.0,86,0.00,,,0.00,0.00,VWS V14.00,2013-06-30 09:52:00,
2013-06-30 03:57:00,61.2,56.7,30.68,North,360,0.0,2.0,85,0.00,,,0.00,0.00,VWS V14.00,2013-06-30 09:57:00,
2013-06-30 04:02:00,61.1,56.9,30.68,North,360,0.0,2.0,86,0.00,,,0.00,0.00,VWS V14.00,2013-06-30 10:02:00,
2013-06-30 04:07:00,60.9,57.0,30.67,North,360,0.0,0.0,87,0.00,,,0.00,0.00,VWS V14.00,2013-06-30 10:07:00,
2013-06-30 04:12:00,60.8,56.9,30.67,North,360,0.0,0.0,87,0.00,,,0.00,0.00,VWS V14.00,2013-06-30 10:12:00,
2013-06-30 04:17:00,60.7,57.1,30.68,North,360,2.0,2.0,88,0.00,,,0.00,0.00,VWS V14.00,2013-06-30 10:17:00,
2013-06-30 04:22:00,60.8,57.2,30.68,North,360,0.0,0.0,88,0.00,,,0.00,0.00,VWS V14.00,2013-06-30 10:22:00,
2013-06-30 04:27:00,60.8,57.2,30.68,North,360,0.0,0.0,88,0.00,,,0.00,0.00,VWS V14.00,2013-06-30 10:27:00,
2013-06-30 04:32:00,60.9,57.3,30.68,North,360,0.0,0.0,88,0.00,,,0.00,0.00,VWS V14.00,2013-06-30 10:32:00,
2013-06-30 04:37:00,61.1,57.5,30.68,North,360,0.0,0.0,88,0.00,,,0.00,0.00,VWS V14.00,2013-06-30 10:37:00,
2013-06-30 04:42:00,61.1,57.5,30.68,North,360,0.0,0.0,88,0.00,,,0.00,0.00,VWS V14.00,2013-06-30 10:42:00,
2013-06-30 04:47:00,61.1,57.5,30.69,North,360,0.0,0.0,88,0.00,,,0.00,0.00,VWS V14.00,2013-06-30 10:47:00,
2013-06-30 04:52:00,61.1,57.5,30.69,North,360,0.0,0.0,88,0.00,,,0.00,0.00,VWS V14.00,2013-06-30 10:52:00,
2013-06-30 04:57:00,61.1,57.5,30.69,North,360,4.0,4.0,88,0.00,,,0.00,0.00,VWS V14.00,2013-06-30 10:57:00,
2013-06-30 05:02:00,61.0,57.4,30.69,North,360,0.0,4.0,88,0.00,,,0.00,0.00,VWS V14.00,2013-06-30 11:02:00,
2013-06-30 05:07:00,60.7,56.8,30.68,North,360,3.0,3.0,87,0.00,,,0.00,0.00,VWS V14.00,2013-06-30 11:07:00,
2013-06-30 05:12:00,60.3,56.4,30.69,North,360,0.0,3.0,87,0.00,,,0.00,0.00,VWS V14.00,2013-06-30 11:12:00,
2013-06-30 05:17:00,60.1,56.5,30.69,North,360,0.0,3.0,88,0.00,,,0.00,0.00,VWS V14.00,2013-06-30 11:17:00,
2013-06-30 05:22:00,60.0,56.8,30.69,North,360,0.0,0.0,89,0.00,,,0.00,0.00,VWS V14.00,2013-06-30 11:22:00,
2013-06-30 05:27:00,60.0,57.1,30.69,North,360,0.0,0.0,90,0.00,,,0.00,0.00,VWS V14.00,2013-06-30 11:27:00,
2013-06-30 05:32:00,59.9,57.0,30.70,North,360,0.0,0.0,90,0.00,,,0.00,0.00,VWS V14.00,2013-06-30 11:32:00,
2013-06-30 05:37:00,59.9,57.0,30.69,North,360,0.0,0.0,90,0.00,,,0.00,0.00,VWS V14.00,2013-06-30 11:37:00,
2013-06-30 05:42:00,59.9,57.3,30.69,North,360,0.0,0.0,91,0.00,,,0.00,0.00,VWS V14.00,2013-06-30 11:42:00,
2013-06-30 05:47:00,60.0,57.4,30.69,North,360,0.0,0.0,91,0.00,,,0.00,0.00,VWS V14.00,2013-06-30 11:47:00,
2013-06-30 05:52:00,60.0,57.4,30.70,North,360,0.0,0.0,91,0.00,,,0.00,0.00,VWS V14.00,2013-06-30 11:52:00,
2013-06-30 05:57:00,60.0,57.1,30.70,North,360,0.0,0.0,90,0.00,,,0.00,0.00,VWS V14.00,2013-06-30 11:57:00,
2013-06-30 06:02:00,59.9,57.0,30.70,North,360,0.0,0.0,90,0.00,,,0.00,0.00,VWS V14.00,2013-06-30 12:02:00,
2013-06-30 06:07:00,59.7,56.5,30.70,North,360,0.0,0.0,89,0.00,,,0.00,7.00,VWS V14.00,2013-06-30 12:07:00,
2013-06-30 06:12:00,59.5,56.3,30.73,North,360,0.0,0.0,89,0.00,,,0.00,11.00,VWS V14.00,2013-06-30 12:12:00,
2013-06-30 06:17:00,59.1,55.9,30.74,North,360,0.0,0.0,89,0.00,,,0.00,12.00,VWS V14.00,2013-06-30 12:17:00,
2013-06-30 06:22:00,59.0,56.1,30.74,North,360,0.0,0.0,90,0.00,,,0.00,14.00,VWS V14.00,2013-06-30 12:22:00,
2013-06-30 06:27:00,59.0,56.1,30.74,North,360,0.0,0.0,90,0.00,,,0.00,16.00,VWS V14.00,2013-06-30 12:27:00,
2013-06-30 06:32:00,59.0,56.1,30.74,North,360,0.0,0.0,90,0.00,,,0.00,18.00,VWS V14.00,2013-06-30 12:32:00,
2013-06-30 06:37:00,59.0,56.1,30.74,North,360,0.0,0.0,90,0.00,,,0.00,26.00,VWS V14.00,2013-06-30 12:37:00,
2013-06-30 06:42:00,59.0,56.4,30.74,North,360,0.0,0.0,91,0.00,,,0.00,19.00,VWS V14.00,2013-06-30 12:42:00,
2013-06-30 06:47:00,59.0,56.4,30.74,North,360,0.0,0.0,91,0.00,,,0.00,21.00,VWS V14.00,2013-06-30 12:47:00,
2013-06-30 06:52:00,59.0,56.4,30.74,North,360,0.0,0.0,91,0.00,,,0.00,21.00,VWS V14.00,2013-06-30 12:52:00,
2013-06-30 06:57:00,59.1,56.8,30.74,North,360,0.0,0.0,92,0.00,,,0.00,23.00,VWS V14.00,2013-06-30 12:57:00,
2013-06-30 07:02:00,59.2,56.9,30.74,North,360,0.0,0.0,92,0.00,,,0.00,25.00,VWS V14.00,2013-06-30 13:02:00,
2013-06-30 07:07:00,59.4,57.1,30.76,North,360,0.0,0.0,92,0.00,,,0.00,25.00,VWS V14.00,2013-06-30 13:07:00,
2013-06-30 07:12:00,59.6,57.3,30.75,North,360,0.0,0.0,92,0.00,,,0.00,26.00,VWS V14.00,2013-06-30 13:12:00,
2013-06-30 07:17:00,59.7,57.7,30.75,North,360,0.0,0.0,93,0.00,,,0.00,26.00,VWS V14.00,2013-06-30 13:17:00,
2013-06-30 07:22:00,59.8,57.8,30.76,North,360,0.0,0.0,93,0.00,,,0.00,28.00,VWS V14.00,2013-06-30 13:22:00,
2013-06-30 07:27:00,60.0,58.0,30.76,North,360,0.0,0.0,93,0.00,,,0.00,28.00,VWS V14.00,2013-06-30 13:27:00,
2013-06-30 07:32:00,60.4,58.4,30.76,North,360,0.0,2.0,93,0.00,,,0.00,30.00,VWS V14.00,2013-06-30 13:32:00,
2013-06-30 07:37:00,60.6,58.6,30.76,North,360,0.0,0.0,93,0.00,,,0.00,30.00,VWS V14.00,2013-06-30 13:37:00,
2013-06-30 07:42:00,60.9,58.9,30.76,North,360,0.0,1.0,93,0.00,,,0.00,32.00,VWS V14.00,2013-06-30 13:42:00,
2013-06-30 07:47:00,61.1,59.1,30.76,North,360,0.0,1.0,93,0.00,,,0.00,35.00,VWS V14.00,2013-06-30 13:47:00,
2013-06-30 07:52:00,61.3,59.3,30.76,North,360,0.0,0.0,93,0.00,,,0.00,60.00,VWS V14.00,2013-06-30 13:52:00,
2013-06-30 07:57:00,61.5,59.2,30.76,North,360,0.0,0.0,92,0.00,,,0.00,37.00,VWS V14.00,2013-06-30 13:57:00,
2013-06-30 08:02:00,61.9,59.2,30.76,North,360,0.0,0.0,91,0.00,,,0.00,37.00,VWS V14.00,2013-06-30 14:02:00,
2013-06-30 08:07:00,62.1,59.1,30.77,North,360,0.0,0.0,90,0.00,,,0.00,39.00,VWS V14.00,2013-06-30 14:07:00,
2013-06-30 08:12:00,62.4,58.8,30.77,North,360,0.0,1.0,88,0.00,,,0.00,104.00,VWS V14.00,2013-06-30 14:12:00,
2013-06-30 08:17:00,62.7,58.5,30.77,North,360,0.0,2.0,86,0.00,,,0.00,206.00,VWS V14.00,2013-06-30 14:17:00,
2013-06-30 08:22:00,63.2,59.0,30.77,North,360,1.0,2.0,86,0.00,,,0.00,338.00,VWS V14.00,2013-06-30 14:22:00,
2013-06-30 08:27:00,63.7,59.1,30.76,North,360,0.0,2.0,85,0.00,,,0.00,359.00,VWS V14.00,2013-06-30 14:27:00,
2013-06-30 08:32:00,64.3,59.7,30.76,North,360,0.0,2.0,85,0.00,,,0.00,371.00,VWS V14.00,2013-06-30 14:32:00,
2013-06-30 08:37:00,65.1,59.8,30.76,North,360,0.0,3.0,83,0.00,,,0.00,387.00,VWS V14.00,2013-06-30 14:37:00,
2013-06-30 08:42:00,65.8,60.5,30.75,North,360,1.0,3.0,83,0.00,,,0.00,399.00,VWS V14.00,2013-06-30 14:42:00,
2013-06-30 08:47:00,66.6,60.9,30.75,North,360,0.0,3.0,82,0.00,,,0.00,415.00,VWS V14.00,2013-06-30 14:47:00,
2013-06-30 08:52:00,67.2,60.8,30.75,North,360,2.0,3.0,80,0.00,,,0.00,427.00,VWS V14.00,2013-06-30 14:52:00,
2013-06-30 08:57:00,67.9,60.1,30.74,North,355,0.0,3.0,76,0.00,,,0.00,443.00,VWS V14.00,2013-06-30 14:57:00,
2013-06-30 09:03:00,68.4,61.3,30.74,North,355,0.0,3.0,78,0.00,,,0.00,457.00,VWS V14.00,2013-06-30 15:03:00,
2013-06-30 09:08:00,69.0,61.1,30.75,North,355,0.0,0.0,76,0.00,,,0.00,469.00,VWS V14.00,2013-06-30 15:08:00,
2013-06-30 09:13:00,69.5,62.3,30.75,North,355,3.0,4.0,78,0.00,,,0.00,483.00,VWS V14.00,2013-06-30 15:13:00,
2013-06-30 09:18:00,70.0,61.3,30.75,North,355,0.0,4.0,74,0.00,,,0.00,496.00,VWS V14.00,2013-06-30 15:18:00,
2013-06-30 09:23:00,70.6,61.5,30.75,North,355,0.0,0.0,73,0.00,,,0.00,510.00,VWS V14.00,2013-06-30 15:23:00,
2013-06-30 09:28:00,71.2,61.7,30.75,North,355,2.0,3.0,72,0.00,,,0.00,520.00,VWS V14.00,2013-06-30 15:28:00,
2013-06-30 09:33:00,71.8,61.5,30.74,North,350,0.0,4.0,70,0.00,,,0.00,536.00,VWS V14.00,2013-06-30 15:33:00,
2013-06-30 09:38:00,72.3,61.6,30.74,North,350,0.0,0.0,69,0.00,,,0.00,548.00,VWS V14.00,2013-06-30 15:38:00,
2013-06-30 09:43:00,72.9,61.3,30.74,North,350,0.0,2.0,67,0.00,,,0.00,561.00,VWS V14.00,2013-06-30 15:43:00,
2013-06-30 09:48:00,73.3,62.1,30.74,North,350,0.0,2.0,68,0.00,,,0.00,571.00,VWS V14.00,2013-06-30 15:48:00,
2013-06-30 09:53:00,73.8,61.7,30.73,North,351,0.0,0.0,66,0.00,,,0.00,587.00,VWS V14.00,2013-06-30 15:53:00,
2013-06-30 09:58:00,74.2,61.7,30.73,North,351,0.0,1.0,65,0.00,,,0.00,596.00,VWS V14.00,2013-06-30 15:58:00,
2013-06-30 10:03:00,74.5,61.5,30.73,North,351,0.0,1.0,64,0.00,,,0.00,608.00,VWS V14.00,2013-06-30 16:03:00,
2013-06-30 10:08:00,74.9,61.9,30.74,North,350,0.0,0.0,64,0.00,,,0.00,617.00,VWS V14.00,2013-06-30 16:08:00,
2013-06-30 10:13:00,75.2,61.8,30.74,North,350,1.0,3.0,63,0.00,,,0.00,628.00,VWS V14.00,2013-06-30 16:13:00,
2013-06-30 10:18:00,75.5,61.6,30.73,North,350,0.0,3.0,62,0.00,,,0.00,642.00,VWS V14.00,2013-06-30 16:18:00,
2013-06-30 10:23:00,75.9,61.0,30.73,North,350,0.0,0.0,60,0.00,,,0.00,656.00,VWS V14.00,2013-06-30 16:23:00,
2013-06-30 10:28:00,76.4,61.0,30.73,North,349,0.0,4.0,59,0.00,,,0.00,666.00,VWS V14.00,2013-06-30 16:28:00,
2013-06-30 10:33:00,76.7,60.8,30.73,North,350,0.0,4.0,58,0.00,,,0.00,679.00,VWS V14.00,2013-06-30 16:33:00,
2013-06-30 10:38:00,77.0,61.6,30.73,NNW,348,0.0,0.0,59,0.00,,,0.00,691.00,VWS V14.00,2013-06-30 16:38:00,
2013-06-30 10:43:00,77.3,60.4,30.72,NNW,346,0.0,1.0,56,0.00,,,0.00,701.00,VWS V14.00,2013-06-30 16:43:00,
2013-06-30 10:48:00,77.6,61.2,30.71,NNW,346,0.0,4.0,57,0.00,,,0.00,712.00,VWS V14.00,2013-06-30 16:48:00,
2013-06-30 10:53:00,77.8,62.3,30.71,NNW,345,0.0,1.0,59,0.00,,,0.00,724.00,VWS V14.00,2013-06-30 16:53:00,
2013-06-30 10:58:00,78.1,61.6,30.71,NNW,345,0.0,1.0,57,0.00,,,0.00,733.00,VWS V14.00,2013-06-30 16:58:00,
2013-06-30 11:03:00,78.5,61.0,30.71,NNW,342,0.0,4.0,55,0.00,,,0.00,744.00,VWS V14.00,2013-06-30 17:03:00,
2013-06-30 11:08:00,78.7,61.7,30.72,NNW,341,0.0,0.0,56,0.00,,,0.00,754.00,VWS V14.00,2013-06-30 17:08:00,
2013-06-30 11:13:00,79.1,61.6,30.71,NNW,342,2.0,3.0,55,0.00,,,0.00,763.00,VWS V14.00,2013-06-30 17:13:00,
2013-06-30 11:18:00,79.5,61.9,30.72,NNW,340,0.0,5.0,55,0.00,,,0.00,768.00,VWS V14.00,2013-06-30 17:18:00,
2013-06-30 11:23:00,79.8,62.2,30.72,NNW,334,0.0,1.0,55,0.00,,,0.00,782.00,VWS V14.00,2013-06-30 17:23:00,
2013-06-30 11:28:00,80.2,63.6,30.72,NNW,334,0.0,1.0,57,0.00,,,0.00,788.00,VWS V14.00,2013-06-30 17:28:00,
2013-06-30 11:33:00,80.5,62.9,30.72,NW,326,4.0,5.0,55,0.00,,,0.00,796.00,VWS V14.00,2013-06-30 17:33:00,
2013-06-30 11:38:00,80.7,62.0,30.70,NW,320,0.0,0.0,53,0.00,,,0.00,803.00,VWS V14.00,2013-06-30 17:38:00,
2013-06-30 11:43:00,80.9,62.7,30.70,NW,325,0.0,5.0,54,0.00,,,0.00,810.00,VWS V14.00,2013-06-30 17:43:00,
2013-06-30 11:48:00,81.2,62.5,30.70,North,360,3.0,6.0,53,0.00,,,0.00,819.00,VWS V14.00,2013-06-30 17:48:00,
2013-06-30 11:53:00,81.5,62.2,30.70,North,350,0.0,0.0,52,0.00,,,0.00,821.00,VWS V14.00,2013-06-30 17:53:00,
2013-06-30 11:58:00,81.8,62.5,30.70,NW,310,3.0,5.0,52,0.00,,,0.00,828.00,VWS V14.00,2013-06-30 17:58:00,
2013-06-30 12:03:00,82.0,62.7,30.70,NW,314,0.0,6.0,52,0.00,,,0.00,835.00,VWS V14.00,2013-06-30 18:03:00,
2013-06-30 12:08:00,82.1,62.2,30.71,NNW,348,2.0,5.0,51,0.00,,,0.00,840.00,VWS V14.00,2013-06-30 18:08:00,
2013-06-30 12:13:00,82.3,62.4,30.71,NW,304,4.0,6.0,51,0.00,,,0.00,846.00,VWS V14.00,2013-06-30 18:13:00,
2013-06-30 12:18:00,82.6,62.7,30.69,NNW,338,3.0,6.0,51,0.00,,,0.00,853.00,VWS V14.00,2013-06-30 18:18:00,
2013-06-30 12:23:00,82.8,62.8,30.70,North,350,2.0,6.0,51,0.00,,,0.00,856.00,VWS V14.00,2013-06-30 18:23:00,
2013-06-30 12:28:00,82.9,63.5,30.70,NNW,343,4.0,8.0,52,0.00,,,0.00,860.00,VWS V14.00,2013-06-30 18:28:00,
2013-06-30 12:33:00,83.0,63.6,30.70,NNW,346,4.0,8.0,52,0.00,,,0.00,865.00,VWS V14.00,2013-06-30 18:33:00,
2013-06-30 12:38:00,83.2,64.3,30.69,North,355,4.0,7.0,53,0.00,,,0.00,867.00,VWS V14.00,2013-06-30 18:38:00,
2013-06-30 12:43:00,83.5,64.0,30.69,NW,309,6.0,7.0,52,0.00,,,0.00,872.00,VWS V14.00,2013-06-30 18:43:00,
2013-06-30 12:48:00,83.7,63.1,30.69,NW,311,0.0,9.0,50,0.00,,,0.00,877.00,VWS V14.00,2013-06-30 18:48:00,
2013-06-30 12:53:00,83.9,63.3,30.69,NNW,327,1.0,4.0,50,0.00,,,0.00,879.00,VWS V14.00,2013-06-30 18:53:00,
2013-06-30 12:58:00,84.3,64.8,30.69,NW,321,4.0,7.0,52,0.00,,,0.00,882.00,VWS V14.00,2013-06-30 18:58:00,
2013-06-30 13:03:00,84.7,64.6,30.68,NNW,327,5.0,7.0,51,0.00,,,0.00,882.00,VWS V14.00,2013-06-30 19:03:00,
2013-06-30 13:08:00,84.9,64.2,30.68,NW,311,1.0,3.0,50,0.00,,,0.00,886.00,VWS V14.00,2013-06-30 19:08:00,
2013-06-30 13:13:00,85.1,63.2,30.68,NNW,342,5.0,7.0,48,0.00,,,0.00,884.00,VWS V14.00,2013-06-30 19:13:00,
2013-06-30 13:18:00,85.2,63.9,30.68,NNW,343,3.0,7.0,49,0.00,,,0.00,888.00,VWS V14.00,2013-06-30 19:18:00,
2013-06-30 13:23:00,85.4,64.1,30.68,NNW,340,6.0,9.0,49,0.00,,,0.00,888.00,VWS V14.00,2013-06-30 19:23:00,
2013-06-30 13:28:00,85.7,65.5,30.68,NNW,340,0.0,9.0,51,0.00,,,0.00,889.00,VWS V14.00,2013-06-30 19:28:00,
2013-06-30 13:33:00,85.9,64.0,30.68,NNW,329,0.0,9.0,48,0.00,,,0.00,891.00,VWS V14.00,2013-06-30 19:33:00,
2013-06-30 13:38:00,86.1,63.5,30.68,North,10,0.0,7.0,47,0.00,,,0.00,891.00,VWS V14.00,2013-06-30 19:38:00,
2013-06-30 13:43:00,86.2,63.6,30.68,NNW,342,4.0,7.0,47,0.00,,,0.00,895.00,VWS V14.00,2013-06-30 19:43:00,
2013-06-30 13:48:00,86.4,65.0,30.67,NNW,334,3.0,7.0,49,0.00,,,0.00,891.00,VWS V14.00,2013-06-30 19:48:00,
2013-06-30 13:53:00,86.7,63.5,30.66,NW,314,0.0,3.0,46,0.00,,,0.00,895.00,VWS V14.00,2013-06-30 19:53:00,
2013-06-30 13:58:00,87.1,63.2,30.67,NNW,346,5.0,10.0,45,0.00,,,0.00,891.00,VWS V14.00,2013-06-30 19:58:00,
2013-06-30 14:03:00,87.3,64.0,30.67,NW,318,1.0,10.0,46,0.00,,,0.00,891.00,VWS V14.00,2013-06-30 20:03:00,
2013-06-30 14:08:00,87.6,62.4,30.67,NNW,335,2.0,6.0,43,0.00,,,0.00,891.00,VWS V14.00,2013-06-30 20:08:00,
2013-06-30 14:13:00,87.8,62.5,30.66,NW,318,2.0,6.0,43,0.00,,,0.00,886.00,VWS V14.00,2013-06-30 20:13:00,
2013-06-30 14:18:00,88.0,64.0,30.66,NW,323,3.0,6.0,45,0.00,,,0.00,884.00,VWS V14.00,2013-06-30 20:18:00,
2013-06-30 14:23:00,88.2,62.9,30.66,North,349,2.0,10.0,43,0.00,,,0.00,882.00,VWS V14.00,2013-06-30 20:23:00,
2013-06-30 14:28:00,88.3,63.0,30.66,NNW,345,3.0,10.0,43,0.00,,,0.00,879.00,VWS V14.00,2013-06-30 20:28:00,
2013-06-30 14:33:00,88.2,63.6,30.66,NW,319,3.0,10.0,44,0.00,,,0.00,874.00,VWS V14.00,2013-06-30 20:33:00,
2013-06-30 14:38:00,88.4,62.4,30.66,NNW,331,0.0,1.0,42,0.00,,,0.00,872.00,VWS V14.00,2013-06-30 20:38:00,
2013-06-30 14:43:00,88.8,64.7,30.65,NW,315,6.0,10.0,45,0.00,,,0.00,865.00,VWS V14.00,2013-06-30 20:43:00,
2013-06-30 14:48:00,89.0,63.6,30.65,NW,311,2.0,10.0,43,0.00,,,0.00,861.00,VWS V14.00,2013-06-30 20:48:00,
2013-06-30 14:53:00,89.1,63.7,30.65,NNW,344,1.0,5.0,43,0.00,,,0.00,858.00,VWS V14.00,2013-06-30 20:53:00,
2013-06-30 14:58:00,89.2,62.4,30.66,NNW,334,3.0,7.0,41,0.00,,,0.00,851.00,VWS V14.00,2013-06-30 20:58:00,
2013-06-30 15:03:00,89.5,62.7,30.65,NW,322,0.0,8.0,41,0.00,,,0.00,846.00,VWS V14.00,2013-06-30 21:03:00,
2013-06-30 15:08:00,89.7,61.5,30.65,NW,325,4.0,6.0,39,0.00,,,0.00,838.00,VWS V14.00,2013-06-30 21:08:00,
2013-06-30 15:13:00,89.9,63.1,30.65,NW,320,5.0,7.0,41,0.00,,,0.00,833.00,VWS V14.00,2013-06-30 21:13:00,
2013-06-30 15:18:00,90.1,63.9,30.65,NW,318,4.0,9.0,42,0.00,,,0.00,826.00,VWS V14.00,2013-06-30 21:18:00,
2013-06-30 15:23:00,90.2,61.9,30.65,NNW,331,0.0,1.0,39,0.00,,,0.00,819.00,VWS V14.00,2013-06-30 21:23:00,
2013-06-30 15:28:00,90.4,62.8,30.65,NNW,348,3.0,9.0,40,0.00,,,0.00,810.00,VWS V14.00,2013-06-30 21:28:00,
2013-06-30 15:33:00,90.5,63.6,30.64,NW,319,5.0,9.0,41,0.00,,,0.00,805.00,VWS V14.00,2013-06-30 21:33:00,
2013-06-30 15:38:00,90.7,63.1,30.64,NNW,336,4.0,6.0,40,0.00,,,0.00,795.00,VWS V14.00,2013-06-30 21:38:00,
2013-06-30 15:43:00,90.8,63.2,30.64,NNW,340,2.0,7.0,40,0.00,,,0.00,789.00,VWS V14.00,2013-06-30 21:43:00,
2013-06-30 15:48:00,91.0,62.6,30.64,North,349,1.0,7.0,39,0.00,,,0.00,780.00,VWS V14.00,2013-06-30 21:48:00,
2013-06-30 15:53:00,91.4,61.5,30.64,NNW,331,0.0,1.0,37,0.00,,,0.00,775.00,VWS V14.00,2013-06-30 21:53:00,
2013-06-30 15:58:00,91.8,63.3,30.64,NNW,337,2.0,7.0,39,0.00,,,0.00,765.00,VWS V14.00,2013-06-30 21:58:00,
2013-06-30 16:03:00,92.0,62.8,30.64,NNW,339,0.0,7.0,38,0.00,,,0.00,758.00,VWS V14.00,2013-06-30 22:03:00,
2013-06-30 16:08:00,92.2,63.0,30.64,NNW,337,4.0,6.0,38,0.00,,,0.00,747.00,VWS V14.00,2013-06-30 22:08:00,
2013-06-30 16:13:00,92.1,63.6,30.63,NNW,340,1.0,7.0,39,0.00,,,0.00,738.00,VWS V14.00,2013-06-30 22:13:00,
2013-06-30 16:18:00,92.2,61.4,30.63,NNW,346,0.0,7.0,36,0.00,,,0.00,729.00,VWS V14.00,2013-06-30 22:18:00,
2013-06-30 16:23:00,92.3,61.5,30.63,North,5,7.0,8.0,36,0.00,,,0.00,721.00,VWS V14.00,2013-06-30 22:23:00,
2013-06-30 16:28:00,92.5,61.7,30.62,NNW,339,1.0,9.0,36,0.00,,,0.00,707.00,VWS V14.00,2013-06-30 22:28:00,
2013-06-30 16:33:00,92.6,60.2,30.62,NNW,348,0.0,9.0,34,0.00,,,0.00,696.00,VWS V14.00,2013-06-30 22:33:00,
2013-06-30 16:38:00,92.9,62.0,30.62,NNW,348,0.0,1.0,36,0.00,,,0.00,689.00,VWS V14.00,2013-06-30 22:38:00,
2013-06-30 16:43:00,93.2,61.5,30.62,NNW,340,0.0,5.0,35,0.00,,,0.00,679.00,VWS V14.00,2013-06-30 22:43:00,
2013-06-30 16:48:00,93.5,61.8,30.62,NNW,340,3.0,6.0,35,0.00,,,0.00,668.00,VWS V14.00,2013-06-30 22:48:00,
2013-06-30 16:53:00,93.6,61.8,30.62,NNW,344,0.0,0.0,35,0.00,,,0.00,656.00,VWS V14.00,2013-06-30 22:53:00,
2013-06-30 16:58:00,93.7,62.7,30.62,NNW,339,0.0,6.0,36,0.00,,,0.00,647.00,VWS V14.00,2013-06-30 22:58:00,
2013-06-30 17:03:00,93.7,62.7,30.62,NW,326,3.0,6.0,36,0.00,,,0.00,635.00,VWS V14.00,2013-06-30 23:03:00,
2013-06-30 17:08:00,93.6,64.2,30.61,NW,326,0.0,4.0,38,0.00,,,0.00,622.00,VWS V14.00,2013-06-30 23:08:00,
2013-06-30 17:13:00,93.5,63.3,30.61,NW,325,4.0,7.0,37,0.00,,,0.00,610.00,VWS V14.00,2013-06-30 23:13:00,
2013-06-30 17:18:00,93.4,61.7,30.62,NW,316,5.0,7.0,35,0.00,,,0.00,598.00,VWS V14.00,2013-06-30 23:18:00,
2013-06-30 17:23:00,93.1,61.4,30.62,North,355,2.0,5.0,35,0.00,,,0.00,584.00,VWS V14.00,2013-06-30 23:23:00,
2013-06-30 17:28:00,93.0,61.3,30.62,North,355,5.0,7.0,35,0.00,,,0.00,571.00,VWS V14.00,2013-06-30 23:28:00,
2013-06-30 17:33:00,92.9,61.2,30.62,North,360,7.0,9.0,35,0.00,,,0.00,559.00,VWS V14.00,2013-06-30 23:33:00,
2013-06-30 17:38:00,92.6,59.3,30.62,NNW,336,4.0,5.0,33,0.00,,,0.00,548.00,VWS V14.00,2013-06-30 23:38:00,
2013-06-30 17:43:00,92.5,60.1,30.62,NNW,342,6.0,7.0,34,0.00,,,0.00,538.00,VWS V14.00,2013-06-30 23:43:00,
2013-06-30 17:48:00,92.4,59.2,30.63,NNW,334,3.0,7.0,33,0.00,,,0.00,527.00,VWS V14.00,2013-06-30 23:48:00,
2013-06-30 17:53:00,92.5,60.1,30.62,NNW,344,4.0,4.0,34,0.00,,,0.00,515.00,VWS V14.00,2013-06-30 23:53:00,
2013-06-30 17:58:00,92.7,59.4,30.62,NNW,333,1.0,6.0,33,0.00,,,0.00,504.00,VWS V14.00,2013-06-30 23:58:00,
2013-06-30 18:03:00,92.8,61.2,30.61,NNW,330,4.0,6.0,35,0.00,,,0.00,487.00,VWS V14.00,2013-07-01 00:03:00,
2013-06-30 18:08:00,92.9,61.2,30.61,NNW,348,4.0,6.0,35,0.00,,,0.00,476.00,VWS V14.00,2013-07-01 00:08:00,
2013-06-30 18:13:00,92.9,60.4,30.61,NNW,333,4.0,6.0,34,0.00,,,0.00,461.00,VWS V14.00,2013-07-01 00:13:00,
2013-06-30 18:18:00,92.8,61.2,30.61,NW,322,0.0,6.0,35,0.00,,,0.00,445.00,VWS V14.00,2013-07-01 00:18:00,
2013-06-30 18:23:00,92.8,63.5,30.61,NNW,330,4.0,4.0,38,0.00,,,0.00,434.00,VWS V14.00,2013-07-01 00:23:00,
2013-06-30 18:28:00,92.8,62.7,30.62,NNW,327,4.0,6.0,37,0.00,,,0.00,420.00,VWS V14.00,2013-07-01 00:28:00,
2013-06-30 18:33:00,92.6,61.8,30.62,NW,318,7.0,7.0,36,0.00,,,0.00,408.00,VWS V14.00,2013-07-01 00:33:00,
2013-06-30 18:38:00,92.3,63.0,30.62,NNW,333,0.0,4.0,38,0.00,,,0.00,390.00,VWS V14.00,2013-07-01 00:38:00,
2013-06-30 18:43:00,92.0,64.2,30.62,NNW,332,5.0,6.0,40,0.00,,,0.00,378.00,VWS V14.00,2013-07-01 00:43:00,
2013-06-30 18:48:00,91.9,64.2,30.62,NNW,336,0.0,6.0,40,0.00,,,0.00,364.00,VWS V14.00,2013-07-01 00:48:00,
2013-06-30 18:53:00,91.8,62.6,30.62,NNW,336,2.0,5.0,38,0.00,,,0.00,352.00,VWS V14.00,2013-07-01 00:53:00,
2013-06-30 18:58:00,91.6,62.4,30.62,NNW,337,4.0,6.0,38,0.00,,,0.00,338.00,VWS V14.00,2013-07-01 00:58:00,
2013-06-30 19:03:00,91.2,62.8,30.62,NNW,336,5.0,8.0,39,0.00,,,0.00,325.00,VWS V14.00,2013-07-01 01:03:00,
2013-06-30 19:08:00,90.6,64.4,30.61,North,350,4.0,6.0,42,0.00,,,0.00,311.00,VWS V14.00,2013-07-01 01:08:00,
2013-06-30 19:13:00,90.0,65.8,30.61,North,355,8.0,8.0,45,0.00,,,0.00,297.00,VWS V14.00,2013-07-01 01:13:00,
2013-06-30 19:18:00,89.5,64.1,30.61,North,350,9.0,9.0,43,0.00,,,0.00,283.00,VWS V14.00,2013-07-01 01:18:00,
2013-06-30 19:23:00,88.7,64.0,30.62,North,355,7.0,7.0,44,0.00,,,0.00,269.00,VWS V14.00,2013-07-01 01:23:00,
2013-06-30 19:28:00,88.1,64.1,30.62,NNW,346,5.0,9.0,45,0.00,,,0.00,255.00,VWS V14.00,2013-07-01 01:28:00,
2013-06-30 19:33:00,87.5,63.6,30.62,NNW,340,6.0,9.0,45,0.00,,,0.00,244.00,VWS V14.00,2013-07-01 01:33:00,
2013-06-30 19:38:00,87.1,63.8,30.63,North,355,4.0,9.0,46,0.00,,,0.00,230.00,VWS V14.00,2013-07-01 01:38:00,
2013-06-30 19:43:00,86.6,64.0,30.63,NNW,348,6.0,9.0,47,0.00,,,0.00,218.00,VWS V14.00,2013-07-01 01:43:00,
2013-06-30 19:48:00,86.2,63.6,30.63,NNW,345,5.0,9.0,47,0.00,,,0.00,204.00,VWS V14.00,2013-07-01 01:48:00,
2013-06-30 19:53:00,85.8,63.3,30.63,North,351,6.0,7.0,47,0.00,,,0.00,190.00,VWS V14.00,2013-07-01 01:53:00,
2013-06-30 19:58:00,85.4,63.5,30.64,North,355,2.0,8.0,48,0.00,,,0.00,178.00,VWS V14.00,2013-07-01 01:58:00,
2013-06-30 20:03:00,85.0,62.5,30.65,North,355,7.0,10.0,47,0.00,,,0.00,165.00,VWS V14.00,2013-07-01 02:03:00,
2013-06-30 20:08:00,84.7,62.3,30.61,NNW,338,7.0,9.0,47,0.00,,,0.00,155.00,VWS V14.00,2013-07-01 02:08:00,
2013-06-30 20:13:00,84.3,64.2,30.62,NNW,348,1.0,9.0,51,0.00,,,0.00,144.00,VWS V14.00,2013-07-01 02:13:00,
2013-06-30 20:18:00,84.1,64.0,30.62,NNW,341,3.0,9.0,51,0.00,,,0.00,132.00,VWS V14.00,2013-07-01 02:18:00,
2013-06-30 20:23:00,83.8,63.8,30.61,NNW,342,5.0,5.0,51,0.00,,,0.00,120.00,VWS V14.00,2013-07-01 02:23:00,
2013-06-30 20:28:00,83.4,63.4,30.62,NNW,344,4.0,5.0,51,0.00,,,0.00,107.00,VWS V14.00,2013-07-01 02:28:00,
2013-06-30 20:33:00,83.1,64.2,30.62,NNW,344,0.0,5.0,53,0.00,,,0.00,95.00,VWS V14.00,2013-07-01 02:33:00,
2013-06-30 20:38:00,82.8,63.9,30.62,NNW,344,0.0,0.0,53,0.00,,,0.00,83.00,VWS V14.00,2013-07-01 02:38:00,
2013-06-30 20:43:00,82.7,62.8,30.62,NNW,344,0.0,1.0,51,0.00,,,0.00,72.00,VWS V14.00,2013-07-01 02:43:00,
2013-06-30 20:48:00,82.5,61.4,30.62,NNW,344,0.0,3.0,49,0.00,,,0.00,62.00,VWS V14.00,2013-07-01 02:48:00,
2013-06-30 20:53:00,82.4,61.3,30.63,NNW,344,0.0,1.0,49,0.00,,,0.00,51.00,VWS V14.00,2013-07-01 02:53:00,
2013-06-30 20:58:00,82.2,60.0,30.63,North,355,0.0,4.0,47,0.00,,,0.00,40.00,VWS V14.00,2013-07-01 02:58:00,
2013-06-30 21:03:00,82.0,59.8,30.63,North,355,4.0,6.0,47,0.00,,,0.00,12.00,VWS V14.00,2013-07-01 03:03:00,
2013-06-30 21:08:00,81.7,59.5,30.62,North,355,0.0,0.0,47,0.00,,,0.00,11.00,VWS V14.00,2013-07-01 03:08:00,
2013-06-30 21:13:00,81.3,59.2,30.62,North,355,0.0,1.0,47,0.00,,,0.00,9.00,VWS V14.00,2013-07-01 03:13:00,
2013-06-30 21:18:00,80.8,58.7,30.62,North,360,0.0,9.0,47,0.00,,,0.00,7.00,VWS V14.00,2013-07-01 03:18:00,
2013-06-30 21:23:00,80.3,60.0,30.62,North,360,0.0,0.0,50,0.00,,,0.00,5.00,VWS V14.00,2013-07-01 03:23:00,
2013-06-30 21:28:00,79.5,59.2,30.63,North,360,0.0,4.0,50,0.00,,,0.00,5.00,VWS V14.00,2013-07-01 03:28:00,
2013-06-30 21:33:00,78.7,59.1,30.63,North,360,0.0,4.0,51,0.00,,,0.00,0.00,VWS V14.00,2013-07-01 03:33:00,
2013-06-30 21:38:00,78.1,59.6,30.64,North,360,0.0,0.0,53,0.00,,,0.00,0.00,VWS V14.00,2013-07-01 03:38:00,
2013-06-30 21:43:00,77.5,59.6,30.64,North,360,0.0,0.0,54,0.00,,,0.00,0.00,VWS V14.00,2013-07-01 03:43:00,
2013-06-30 21:48:00,77.0,60.1,30.64,North,360,0.0,0.0,56,0.00,,,0.00,0.00,VWS V14.00,2013-07-01 03:48:00,
2013-06-30 21:53:00,76.6,60.2,30.64,North,360,0.0,0.0,57,0.00,,,0.00,0.00,VWS V14.00,2013-07-01 03:53:00,
2013-06-30 21:58:00,76.1,59.3,30.65,North,360,0.0,1.0,56,0.00,,,0.00,0.00,VWS V14.00,2013-07-01 03:58:00,
2013-06-30 22:01:00,75.8,59.5,30.66,North,360,0.0,2.0,57,0.00,,,0.00,0.00,VWS V14.00,2013-07-01 04:01:00,
2013-06-30 22:06:00,75.4,59.6,30.66,North,360,0.0,2.0,58,0.00,,,0.00,0.00,VWS V14.00,2013-07-01 04:06:00,
2013-06-30 22:11:00,75.0,59.7,30.64,North,360,0.0,0.0,59,0.00,,,0.00,0.00,VWS V14.00,2013-07-01 04:11:00,
2013-06-30 22:16:00,74.6,59.3,30.65,North,360,0.0,1.0,59,0.00,,,0.00,0.00,VWS V14.00,2013-07-01 04:16:00,
2013-06-30 22:21:00,74.2,59.4,30.66,North,360,1.0,2.0,60,0.00,,,0.00,0.00,VWS V14.00,2013-07-01 04:21:00,
2013-06-30 22:26:00,73.9,59.6,30.66,North,360,0.0,0.0,61,0.00,,,0.00,0.00,VWS V14.00,2013-07-01 04:26:00,
2013-06-30 22:31:00,73.6,59.3,30.67,North,360,0.0,1.0,61,0.00,,,0.00,0.00,VWS V14.00,2013-07-01 04:31:00,
2013-06-30 22:36:00,73.5,58.8,30.67,North,360,0.0,1.0,60,0.00,,,0.00,0.00,VWS V14.00,2013-07-01 04:36:00,
2013-06-30 22:41:00,73.4,59.2,30.67,North,360,0.0,0.0,61,0.00,,,0.00,0.00,VWS V14.00,2013-07-01 04:41:00,
2013-06-30 22:46:00,73.3,58.6,30.67,North,360,0.0,1.0,60,0.00,,,0.00,0.00,VWS V14.00,2013-07-01 04:46:00,
2013-06-30 22:51:00,73.1,58.4,30.67,North,360,0.0,2.0,60,0.00,,,0.00,0.00,VWS V14.00,2013-07-01 04:51:00,
2013-06-30 22:56:00,73.1,58.4,30.67,North,360,0.0,0.0,60,0.00,,,0.00,0.00,VWS V14.00,2013-07-01 04:56:00,
2013-06-30 23:01:00,72.7,59.4,30.67,North,360,0.0,1.0,63,0.00,,,0.00,0.00,VWS V14.00,2013-07-01 05:01:00,
2013-06-30 23:06:00,72.1,58.8,30.68,North,360,0.0,1.0,63,0.00,,,0.00,0.00,VWS V14.00,2013-07-01 05:06:00,
2013-06-30 23:11:00,71.6,58.8,30.67,North,360,0.0,1.0,64,0.00,,,0.00,0.00,VWS V14.00,2013-07-01 05:11:00,
2013-06-30 23:16:00,71.3,58.5,30.68,North,360,0.0,1.0,64,0.00,,,0.00,0.00,VWS V14.00,2013-07-01 05:16:00,
2013-06-30 23:21:00,71.0,58.7,30.68,North,360,0.0,1.0,65,0.00,,,0.00,0.00,VWS V14.00,2013-07-01 05:21:00,
2013-06-30 23:26:00,70.7,58.4,30.68,North,360,0.0,0.0,65,0.00,,,0.00,0.00,VWS V14.00,2013-07-01 05:26:00,
2013-06-30 23:31:00,70.4,58.5,30.68,North,360,0.0,0.0,66,0.00,,,0.00,0.00,VWS V14.00,2013-07-01 05:31:00,
2013-06-30 23:36:00,70.0,57.3,30.68,North,360,0.0,0.0,64,0.00,,,0.00,0.00,VWS V14.00,2013-07-01 05:36:00,
2013-06-30 23:41:00,69.6,57.8,30.68,North,360,0.0,0.0,66,0.00,,,0.00,0.00,VWS V14.00,2013-07-01 05:41:00,
2013-06-30 23:46:00,69.2,58.2,30.69,North,360,0.0,1.0,68,0.00,,,0.00,0.00,VWS V14.00,2013-07-01 05:46:00,
2013-06-30 23:51:00,68.9,56.7,30.69,North,360,0.0,1.0,65,0.00,,,0.00,0.00,VWS V14.00,2013-07-01 05:51:00,
2013-06-30 23:56:00,68.6,56.8,30.69,North,360,0.0,0.0,66,0.00,,,0.00,0.00,VWS V14.00,2013-07-01 05:56:00,